AirNav   Air Wisconsin pilot careers
 
 429 users online  

1TE9 RMR Ranch Airport
Franklin, Texas, USA

GOING TO FRANKLIN?


FAA INFORMATION EFFECTIVE 19 JULY 2018

Location

FAA Identifier: 1TE9
Lat/Long: 31-16-18.3000N / 096-26-22.7397W
31-16.305000N / 096-26.378995W
31.2717500 / -96.4396499
(estimated)
Elevation: 420 ft. / 128 m (estimated)
Variation: 05E (2000)
From city: 15 miles NNE of FRANKLIN, TX
Time zone: UTC -5 (UTC -6 during Standard Time)
Zip code: 77856

Airport Operations

Airport use: Private use. Permission required prior to landing
Activation date: 11/2002
Control tower: no
ARTCC: HOUSTON CENTER
FSS: MONTGOMERY COUNTY FLIGHT SERVICE STATION
Attendance: UNATNDD
Segmented circle: no

Nearby radio navigation aids

VOR radial/distance  VOR name  Freq  Var
GNLr158/19.4GROESBECK VOR/DME108.8005E
LOAr282/25.8LEONA VORTAC110.8008E

 
NDB name  Hdg/Dist  Freq  Var  ID
MEXIA166/22.432904ELXY .-.. -..- -.--
ROBINSON106/35.140007EROB .-. --- -...
PYRAMID193/37.641806EPYF .--. -.-- ..-.

Airport Services

Runway Information

Runway 15/33

Dimensions: 1563 x 150 ft. / 476 x 46 m
Surface: turf
RUNWAY 15  RUNWAY 33
Latitude: 31-16.422000N31-16.188000N
Longitude: 096-26.442000W096-26.315990W
Traffic pattern: leftleft
Displaced threshold: 200 ft.no

Airport Ownership and Management from official FAA records

Ownership: Privately-owned
Owner: RAY FIELD
13140 STATE HWY 7, PO BOX 692
FRANKLIN, TX 77856
Phone (979) 676-1650
SECONDARY PHONE: 713-297-1397
Manager: RAY FIELD
PO BOX 692
FRANKLIN, TX 77856
Phone (979) 676-1650
SECONDARY PHONE: 713-297-1397

Airport Operational Statistics

Aircraft based on the field: 5
Single engine airplanes: 1
Multi engine airplanes: 1
Helicopters: 1
Ultralights: 2
    

Additional Remarks

LARGE MOBILE MINING AND OILFIELD EQPT INVOF ARPT AFFECTING NORTH AND SOUTH APCHS. CALL ARPT FOR UPDATED OBSTN DATA BEFORE FLIGHT.

Instrument Procedures

There are no published instrument procedures at 1TE9.

Some nearby airports with instrument procedures:

T15 - Marlin Airport (22 nm W)
KLXY - Mexia-Limestone County Airport (22 nm N)
KLHB - Hearne Municipal Airport (26 nm S)
51R - Madisonville Municipal Airport (33 nm SE)
KCFD - Coulter Field Airport (34 nm S)
 
Loc | Ops | Rwys | IFR | FBO | Links
Com | Nav | Svcs | Stats | Notes


 
Area around 1TE9 (RMR Ranch Airport)
 
Road maps at: MapQuest Bing Google
 
Aerial photo
No photo
 
Sectional chart

 
Airport distance calculator
Flying to RMR Ranch Airport? Find the distance to fly.

From to 1TE9

Sunrise and sunset
Times for 15-Aug-2018
 Local
(UTC-5)
 Zulu
(UTC)
Morning civil twilight06:2711:27
Sunrise06:5211:52
Sunset20:0801:08
Evening civil twilight20:3401:34

Current date and time
Zulu (UTC)  15-Aug-2018 06:27:01
Local (UTC-5)  15-Aug-2018 01:27:01
 
METAR
KLXY 
22nm N 
150615Z AUTO 18012G19KT 10SM CLR 28/21 A2995 RMK AO2 T02800213
KLHB 
26nm S 
150615Z AUTO 13005KT 10SM CLR 26/23 A2998 RMK AO2 T02620225
KCFD 
34nm S 
150615Z AUTO 17010G15KT 10SM CLR 27/24 A2999 RMK AO2 T02650240
KT35 
36nm SW 
150615Z AUTO 17009KT 10SM CLR 27/22 A2996 RMK AO2 T02710223
KCNW 
39nm NW 
150355Z 16008KT 10SM SKC 30/21 A2993
KCLL 
41nm S 
150553Z AUTO 16007KT 10SM CLR 27/23 A2998 RMK AO2 SLP147 T02720233 10339 20267 403610233 51014
TAF
KCLL 
41nm S 
150520Z 1506/1606 15011KT P6SM SKC FM151200 17007KT P6SM BKN015 FM151400 18009KT P6SM BKN025 FM151600 18012KT P6SM SCT050
KACT 
46nm NW 
150525Z 1506/1606 17011KT P6SM SCT150 TEMPO 1512/1515 BKN025
NOTAMs
Click for the latest NOTAMs
NOTAMs are issued by the DoD/FAA and will open in a separate window not controlled by AirNav.

 

 
 

Would you like to see your business listed on this page?

 If your business provides an interesting product or service to pilots, flight crews, aircraft, or users of the RMR Ranch Airport, you should consider listing it here.  To start the listing process, click on the button below
 
Add a business
 

Other Pages about RMR Ranch Airport

Update a link
 
Copyright © AirNav, LLC. All rights reserved. Privacy Policy  Contact